Portada
METAR-TAF:

METAR-TAF

Aeropuertos :

Paso de los Libres, Argentina

Aeropuerto Internacional de Paso de los Libres

latitud: 29-41S, longitud: 057-09W, altitud: 69 m

Observación

El informe se hizo hace 25 minutos, a las 01:00 UTC
Viento 6 kt del noreste
Temperatura 25°C
Humedad 89%
Presión 1005 hPa
Visibilidad 10 km o más
Escasas nubes a una altura de 4000 ft, Cumulonimbus.
Cielo cubierto a una altura de 10000 ft

METAR: SARL 240100Z 05006KT 9999 FEW040CB OVC100 25/23 Q1005

Hora: 22:25 (01:25 UTC)


TAF: falta

Observaciones y pronósticos meteorológicos de más de 4000 aeropuertos (mensajes METAR y TAF).

Los puntos amarillos y rojos representan las estaciones disponibles.

Ponga el ratón en el punto deseado para ver el nombre de la estación.

Haga clic para ver las observaciones y los pronósticos meteorológicos.

Para cambiar el mapa : haga clic en los botones verdes con una cruz de color negro para hacer un zoom, en el botón verde con un guión para alejar o en las flechas verdes para mapas adyacentes.


METAR-TAF: